Weather observations for the past three days for
Beaufort Smith Field
Metric (Imperial)
Date Time (edt) Wind (kph) Vis. (km) Weather Sky Cond. Temperature (ºC) Relative Humidity Wind Chill (°C) Heat Index (°C) Pressure Precipitation (cm)
Air Dwpt 6 hour altimeter (cm) sea level (mb) 1 hr 3 hr 6 hr
Max. Min.
21 11:58 E 19 16.09 Mostly Cloudy FEW016 SCT021 BKN060 29.4 22.8 68% 33 76.81 1024.0
21 10:58 E 19 16.09 Overcast SCT026 BKN031 OVC055 28.3 22.2 70% 31 76.81 1023.9
21 09:58 E 13 16.09 Overcast BKN035 OVC045 28.3 21.7 67% 31 76.78 1023.8
21 08:58 E 15 16.09 Overcast SCT023 BKN030 OVC038 27.8 21.7 69% 30 76.81 1023.9
21 07:58 NE 7 14.48 Overcast OVC033 25.6 21.1 25.6 22.2 76% 27 76.81 1023.9
21 06:58 NE 9 16.09 A Few Clouds FEW037 23.3 19.4 79% 76.78 1023.8
21 05:58 Calm 16.09 Fair CLR 23.3 18.9 76% 76.78 1023.6
21 04:58 E 9 16.09 Fair CLR 25 18.9 69% 26 76.76 1023.4
21 03:58 E 6 16.09 Fair CLR 24.4 18.3 69% 25 76.78 1023.8
21 02:58 E 6 16.09 Fair CLR 24.4 18.3 69% 25 76.84 1024.4
21 01:58 E 6 16.09 A Few Clouds FEW030 25 18.9 27.2 25 69% 26 76.86 1024.7
21 00:58 E 7 16.09 A Few Clouds FEW031 25.6 18.9 67% 27 76.89 1024.9
20 23:58 E 13 16.09 Mostly Cloudy BKN035 25.6 18.9 67% 27 76.89 1025.1
20 22:58 E 13 16.09 Mostly Cloudy BKN035 25.6 18.9 67% 27 76.91 1025.4
20 21:58 E 7 16.09 Mostly Cloudy BKN050 25.6 18.3 64% 27 76.89 1025.2
20 20:58 E 6 16.09 Overcast BKN032 BKN040 OVC050 26.1 20 69% 27 76.89 1024.9
20 19:58 E 9 16.09 Partly Cloudy FEW040 SCT050 27.2 18.9 30 27.2 61% 28 76.86 1024.8
20 18:58 E 11 16.09 Fair CLR 27.8 18.9 58% 29 76.86 1024.8
20 17:58 E 9 16.09 Partly Cloudy SCT049 28.3 18.9 57% 30 76.86 1024.8
20 16:58 E 11 16.09 Fair CLR 28.9 18.3 53% 30 76.91 1025.5
20 15:58 E 19 G 33 16.09 A Few Clouds FEW055 29.4 18.3 51% 30 76.96 1025.9
20 14:58 E 19 G 28 16.09 Partly Cloudy FEW037 SCT055 29.4 18.3 51% 30 76.99 1026.4
20 13:58 E 17 16.09 Mostly Cloudy SCT040 BKN050 27.8 17.8 29.4 26.7 55% 29 77.01 1026.6
20 12:58 E 15 16.09 A Few Clouds FEW044 29.4 18.3 51% 30 77.04 1027.2
20 11:58 E 19 G 33 16.09 A Few Clouds FEW049 29.4 17.2 48% 30 77.06 1027.4
20 10:58 E 15 16.09 A Few Clouds FEW042 28.9 17.8 51% 30 77.04 1027.2
20 09:58 E 17 16.09 Partly Cloudy SCT039 27.8 18.3 56% 29 77.01 1026.7
20 08:58 E 15 16.09 Mostly Cloudy SCT034 BKN045 26.7 18.3 60% 28 77.01 1026.7
20 07:58 E 11 16.09 Mostly Cloudy BKN040 BKN047 26.7 18.3 26.7 21.7 60% 28 76.99 1026.3
20 06:58 NE 6 16.09 Mostly Cloudy FEW033 BKN040 22.8 18.3 76% 76.96 1026.2
20 05:58 NE 7 16.09 Fair CLR 22.2 17.8 76% 76.94 1025.7
20 04:58 E 6 16.09 Mostly Cloudy BKN044 24.4 17.2 64% 25 76.91 1025.3
20 03:58 E 9 16.09 Fair CLR 24.4 17.2 64% 25 76.89 1025.1
20 02:58 E 17 16.09 Mostly Cloudy BKN042 25 17.2 62% 26 76.89 1025.0
20 01:58 E 13 16.09 Partly Cloudy SCT045 25 17.2 26.7 25 62% 26 76.94 1025.6
20 00:58 E 13 16.09 Overcast FEW036 OVC045 25.6 18.3 64% 27 76.94 1025.6
19 23:58 E 13 16.09 Overcast SCT037 OVC046 25.6 18.3 64% 27 76.96 1026.1
19 22:58 E 15 16.09 Overcast SCT035 OVC047 26.1 18.3 62% 27 76.99 1026.5
19 21:58 E 13 16.09 Overcast BKN036 OVC046 26.1 18.9 65% 27 76.99 1026.2
19 20:58 E 13 16.09 Overcast OVC036 26.1 18.9 65% 27 76.94 1025.8
19 19:58 E 15 G 28 16.09 Overcast SCT031 OVC040 26.7 18.9 30 26.7 62% 28 76.94 1025.6
19 18:58 E 11 16.09 Partly Cloudy FEW030 SCT039 27.8 19.4 60% 29 76.94 1025.7
19 17:58 E 15 16.09 Fair CLR 28.3 19.4 59% 30 76.91 1025.5
19 16:58 E 17 G 31 16.09 Fair CLR 28.9 18.3 53% 30 76.94 1025.6
19 15:58 E 15 G 28 16.09 A Few Clouds FEW038 30 19.4 53% 32 76.96 1026.2
19 14:58 E 13 G 33 16.09 A Few Clouds FEW042 30 17.8 48% 31 76.99 1026.2
19 13:58 E 20 G 28 16.09 Partly Cloudy FEW037 FEW047 SCT060 28.9 18.3 30 26.7 53% 30 76.99 1026.5
19 12:58 E 19 G 35 16.09 Partly Cloudy FEW042 SCT060 28.9 18.3 53% 30 77.01 1026.7
19 11:58 NE 15 G 30 16.09 Mostly Cloudy SCT037 BKN050 28.9 18.9 55% 30 76.99 1026.6
19 10:58 E 19 16.09 Fair CLR 28.9 17.8 51% 30 76.99 1026.5
19 09:58 E 11 16.09 Mostly Cloudy BKN035 BKN044 27.8 19.4 60% 29 76.99 1026.4
19 08:58 E 17 G 31 16.09 A Few Clouds FEW050 27.2 18.3 58% 28 76.96 1026.1
19 07:58 Vrbl 6 16.09 Mostly Cloudy BKN048 26.7 19.4 26.7 21.7 64% 28 76.94 1025.9
19 06:58 N 6 16.09 Mostly Cloudy BKN035 BKN050 23.3 18.9 76% 76.91 1025.3
19 05:58 NE 6 16.09 Partly Cloudy SCT026 22.8 18.3 76% 76.86 1024.8
19 04:58 Calm 16.09 Partly Cloudy SCT035 24.4 17.8 67% 25 76.84 1024.4
19 03:58 E 7 16.09 Fair CLR 24.4 17.2 64% 25 76.78 1023.8
19 02:58 E 7 16.09 Fair CLR 24.4 17.8 67% 25 76.78 1023.8
19 01:58 SE 15 16.09 Overcast FEW033 OVC043 25.6 18.9 26.1 22.2 67% 27 76.81 1024.0
19 00:58 E 6 16.09 Overcast BKN032 OVC043 25 20 74% 26 76.81 1024.0
18 23:58 NE 7 16.09 A Few Clouds FEW039 22.8 18.3 76% 76.86 1024.5
18 22:58 N 7 16.09 Fair CLR 22.2 17.8 76% 76.86 1024.6
18 21:58 N 7 16.09 Mostly Cloudy FEW036 BKN050 23.9 17.8 69% 25 76.86 1024.6
18 20:58 E 7 16.09 Fair CLR 25.6 17.2 60% 27 76.81 1024.0
18 19:58 E 13 16.09 Fair CLR 26.1 16.7 29.4 26.1 56% 27 76.78 1023.8
18 18:58 E 15 16.09 Overcast BKN035 OVC050 26.7 18.3 60% 28 76.78 1023.6
18 17:58 E 19 16.09 Partly Cloudy SCT042 27.8 17.2 53% 28 76.76 1023.2
18 16:58 E 17 16.09 Partly Cloudy SCT045 28.3 17.2 51% 29 76.81 1023.9
18 15:58 E 15 G 30 16.09 Mostly Cloudy BKN045 28.3 17.8 53% 29 76.84 1024.3
18 14:58 E 19 G 33 16.09 Mostly Cloudy BKN045 28.3 17.8 53% 29 76.81 1024.2
18 13:58 E 20 G 41 16.09 Partly Cloudy SCT042 28.9 17.8 28.9 26.7 51% 30 76.84 1024.4
18 12:58 E 15 G 33 16.09 Partly Cloudy SCT039 28.3 18.3 55% 29 76.84 1024.5
Date Time (edt) Wind (kph) Vis. (km) Weather Sky Cond. Air Dwpt Max. Min. Relative Humidity Wind Chill (°C) Heat Index (°C) altimeter (cm) sea level (mb) 1 hr 3 hr 6 hr
6 hour
Temperature (ºC) Pressure Precipitation (cm)